Location: Palo Alto
(37.4420°N, 122.1420°W)
Time: 08:13:09
(UTC-07:00)

ISS - All Passes

Search period start: 01 July 2016 00:00
Search period end: 11 July 2016 00:00
Orbit: 402 x 404 km, 51.6° (Epoch: 02 July)

Date Brightness Start Highest point End Pass type
(mag) Time Alt. Az. Time Alt. Az. Time Alt. Az.
01 Jul - 07:37:30 10° SSW 07:40:40 53° SE 07:43:51 10° ENE daylight
01 Jul - 09:14:54 10° WNW 09:17:19 19° NNW 09:19:45 10° NNE daylight
01 Jul - 14:07:00 10° NNW 14:09:57 30° NNE 14:12:53 10° E daylight
01 Jul - 15:43:34 10° WNW 15:46:18 24° SW 15:49:01 10° S daylight
02 Jul - 06:45:19 10° S 06:48:02 25° SE 06:50:45 10° ENE daylight
02 Jul - 08:21:28 10° W 08:24:23 30° NNW 08:27:19 10° NNE daylight
02 Jul - 13:14:34 10° NNW 13:17:01 19° NNE 13:19:26 10° ENE daylight
02 Jul - 14:50:28 10° WNW 14:53:39 52° SW 14:56:50 10° SSE daylight
03 Jul - 05:54:05 10° SSE 05:55:27 12° SE 05:56:50 10° ESE daylight
03 Jul - 07:28:19 10° WSW 07:31:31 57° NW 07:34:45 10° NE daylight
03 Jul - 09:07:14 10° NW 09:08:33 12° NNW 09:09:50 10° N daylight
03 Jul - 12:22:20 10° N 12:23:59 13° NNE 12:25:37 10° NE daylight
03 Jul - 13:57:38 10° NW 14:00:55 72° NE 14:04:09 10° SE daylight
04 Jul - 06:35:31 10° SW 06:38:45 67° SE 06:41:59 10° NE daylight
04 Jul - 08:13:15 10° WNW 08:15:28 17° NNW 08:17:41 10° NNE daylight
04 Jul - 13:05:01 10° NW 13:08:03 36° NE 13:11:06 10° ESE daylight
04 Jul - 14:41:51 10° W 14:44:20 20° SW 14:46:47 10° S daylight
05 Jul - 05:43:08 10° SSW 05:46:03 30° SE 05:48:57 10° ENE daylight
05 Jul - 07:19:40 10° W 07:22:28 26° NNW 07:25:17 10° NNE daylight
05 Jul - 12:12:30 10° NNW 12:15:07 21° NNE 12:17:42 10° E daylight
05 Jul - 13:48:33 10° WNW 13:51:40 41° SW 13:54:45 10° SSE daylight
06 Jul - 04:51:27 10° SSE 04:53:24 15° SE 04:55:21 10° E visible
06 Jul - 06:26:24 10° WSW 06:29:33 46° NW 06:32:43 10° NE daylight
06 Jul - 08:05:46 10° NNW 08:06:38 11° NNW 08:07:32 10° N daylight
06 Jul - 11:20:09 10° NNW 11:22:04 14° NNE 11:23:58 10° ENE daylight
06 Jul - 12:55:38 10° NW 12:58:55 89° ENE 13:02:10 10° SE daylight
07 Jul - 05:33:27 10° SW 05:36:42 84° SE 05:39:58 10° NE daylight
07 Jul - 07:11:31 10° WNW 07:13:31 15° NNW 07:15:31 10° NNE daylight
07 Jul - 10:28:14 10° N 10:28:55 10° NNE 10:29:36 10° NNE daylight
07 Jul - 12:02:54 10° NW 12:06:03 43° NE 12:09:10 10° ESE daylight
07 Jul - 13:40:06 10° W 13:42:13 16° SW 13:44:20 10° S daylight
08 Jul - 04:40:54 10° SSW 04:43:56 38° SE 04:46:59 10° ENE visible
08 Jul - 06:17:48 10° W 06:20:28 23° NNW 06:23:07 10° NNE daylight
08 Jul - 11:10:19 10° NNW 11:13:05 24° NNE 11:15:50 10° E daylight
08 Jul - 12:46:34 10° WNW 12:49:33 33° SW 12:52:31 10° SSE daylight
09 Jul - 03:48:54 10° S 03:51:14 18° SE 03:53:35 10° E visible
09 Jul - 05:24:23 10° WSW 05:27:28 38° NW 05:30:33 10° NE visible
09 Jul - 10:17:53 10° NNW 10:20:02 16° NNE 10:22:09 10° ENE daylight
09 Jul - 11:53:31 10° NW 11:56:47 74° SW 12:00:01 10° SE daylight
10 Jul - 04:31:19 10° SW 04:34:33 78° NW 04:37:49 10° NE visible
10 Jul - 06:09:42 10° NW 06:11:27 14° NNW 06:13:12 10° N daylight
10 Jul - 09:25:42 10° N 09:26:52 11° NNE 09:28:01 10° NE daylight
10 Jul - 11:00:42 10° NW 11:03:55 52° NE 11:07:06 10° ESE daylight
10 Jul - 12:38:21 10° W 12:40:01 13° SW 12:41:38 10° SSW daylight
